User: anonymous   Login
Location: Caltech
(34.1382°N, 118.1253°W)
Time: 13:17:45
(UTC-07:00)
Language:

ALOS - Orbit

View from above orbital plane
View from above orbital plane
View from above satellite
View from above satellite

Ground track
Ground track

The orbit data is extracted from the following two-line orbital elements,

1 28931U 06002A   15212.90488019  .00000259  00000-0  60668-4 0  9997
2 28931 097.9288 260.5123 0001173 047.9463 312.1843 14.61929690507171
Epoch (UTC): 31 July 2015 21:43:01
Eccentricity: 0.0001173
inclination: 97.9288°
perigee height: 686 km
apogee height: 688 km
right ascension of ascending node: 260.5123°
argument of perigee: 47.9463°
revolutions per day: 14.61929690
mean anomaly at epoch: 312.1843°
orbit number at epoch: 50717

The dashed part of the orbit path shows where the satellite is in the earth's shadow,  

DLR